Location: Unspecified
(51.3127°N, 0.0000°E)
Time: 04:17:50
(UTC+00:00)

Cosmos 968 Rocket - Visible Passes

Search period start: 04 April 2026 00:00
Search period end: 14 April 2026 00:00
Orbit: 737 x 764 km, 74.0° (Epoch: 29 March)

Date Brightness Start Highest point End Pass type
(mag) Time Alt. Az. Time Alt. Az. Time Alt. Az.
4 Apr 5.2 01:35:22 10° N 01:39:54 29° NE 01:44:25 10° ESE visible
4 Apr 3.5 03:16:50 10° NNW 03:21:53 54° WSW 03:25:53 16° S visible
4 Apr 6.4 19:41:18 10° WNW 19:43:54 14° NW 19:46:31 10° N visible
5 Apr 5.8 00:53:25 10° N 00:57:10 20° NE 01:00:55 10° E visible
5 Apr 3.4 02:34:25 10° NNW 02:39:37 88° ENE 02:42:19 29° SSE visible
5 Apr 5.0 04:17:35 10° WNW 04:20:34 16° W 04:22:06 14° WSW visible
6 Apr 6.2 00:11:44 10° N 00:14:17 14° NE 00:16:51 10° ENE visible
6 Apr 4.1 01:52:09 10° NNW 01:57:14 53° ENE 01:59:31 30° ESE visible
6 Apr 4.3 03:34:19 10° NW 03:38:38 27° W 03:39:20 26° WSW visible
7 Apr 5.0 01:10:01 10° NNW 01:14:41 33° NE 01:17:03 23° E visible
7 Apr 3.7 02:51:36 10° NW 02:56:32 46° WSW 02:56:53 46° WSW visible
7 Apr 6.4 19:16:37 10° WNW 19:18:47 13° NW 19:20:58 10° N visible
8 Apr 5.6 00:28:00 10° N 00:32:00 22° NE 00:34:47 15° E visible
8 Apr 3.3 02:09:08 10° NNW 02:14:20 80° WSW 02:14:38 76° SSW visible
8 Apr 5.3 03:52:46 10° WNW 03:54:29 13° W 03:54:29 13° W visible
8 Apr 6.1 23:46:12 10° N 23:49:09 15° NE 23:52:08 10° ENE visible
9 Apr 3.8 01:26:49 10° NNW 01:31:58 61° ENE 01:32:31 58° E visible
9 Apr 4.8 03:09:12 10° NW 03:12:22 22° W 03:12:22 22° W visible
9 Apr 6.3 23:05:12 10° NNE 23:06:11 10° NNE 23:07:10 10° NE visible
10 Apr 4.7 00:44:38 10° NNW 00:49:28 38° NE 00:50:29 34° E visible
10 Apr 4.2 02:26:23 10° NW 02:30:21 37° W 02:30:21 37° W visible
11 Apr 5.3 00:02:35 10° N 00:06:49 25° NE 00:08:32 21° ENE visible
11 Apr 3.6 01:43:51 10° NNW 01:48:23 62° WNW 01:48:23 62° WNW visible
11 Apr 5.6 03:28:14 10° WNW 03:28:15 10° WNW 03:28:15 10° WNW visible
11 Apr 5.9 23:20:43 10° N 23:24:01 17° NE 23:26:38 12° ENE visible
12 Apr 3.6 01:01:30 10° NNW 01:06:30 70° NE 01:06:30 70° NE visible
12 Apr 5.1 02:44:08 10° NW 02:46:22 18° WNW 02:46:22 18° WNW visible
12 Apr 6.1 22:39:18 10° NNE 22:41:05 12° NNE 22:42:52 10° NE visible
13 Apr 4.3 00:19:17 10° NNW 00:24:14 43° ENE 00:24:39 42° ENE visible
13 Apr 4.6 02:01:11 10° NW 02:04:31 30° WNW 02:04:31 30° WNW visible
13 Apr 5.1 23:37:11 10° N 23:41:38 27° NE 23:42:50 25° ENE visible
